logo
App data

Tank Operations: European Campaign

Tank Operations: European Campaign is a turn-based, tactical wargame featuring a dozen nail-biting historical scenarios set on the diverse battlefields of World War II.
Store | Hub | SteamDB | Site
Developer: Linked Dimensions Publisher:
Genre: Indie, Strategy
Languages: English, French, German
Tags: Strategy (53), Indie (42), World War II (12), Tanks (10), Turn-Based Strategy (7), Turn-Based (5)
Category: Single-player
Release date: Nov 22, 2013
N/A
Old userscore: 32% Owners: 20,000 .. 50,000
Followers: 195
Peak concurrent players yesterday: 2
Playtime total: 02:33 (average) 02:33 (median)

Steam Spy is still in beta, so expect major bugs.

Owners data:

Access restricted.

This feature is only available to users with special access rights. Sorry.

If you want to proceed, you need to register or log in first and then back Steam Spy on Patreon. Look for Indie or Pro pledge.

Don't forget to use the same email as on Steam Spy!

Audience in 2 weeks:

Access restricted.

This feature is only available to users with special access rights. Sorry.

If you want to proceed, you need to register or log in first and then back Steam Spy on Patreon. Look for Indie or Pro pledge.

Don't forget to use the same email as on Steam Spy!

Peak daily concurrent players:

CCU data courtesy of SteamDB. Used with permission.

Hourly concurrent players:

Daily Twitch stats:

Hourly Twitch stats:

Followers over time

Access restricted.

This feature is only available to users with special access rights. Sorry.

If you want to proceed, you need to register or log in first and then back Steam Spy on Patreon. Look for Indie or Pro pledge.

Don't forget to use the same email as on Steam Spy!

Views for top 50 videos on YouTube for this game:

Games similar to this one:

# Game Release date
Price
Score rank
(Userscore / Metascore)
Owners
Players
Playtime (Median)
1 Armed with Wings: Rearmed Jun 1, 2017 $9.99N/A (N/A)20,000 .. 50,0000%00:00 (00:00)
2 Robotex Nov 19, 2014 $4.99N/A (N/A)200,000 .. 500,0000%00:00 (00:00)
3 Super Cyborg Jul 8, 2015 $4.99N/A (N/A)20,000 .. 50,00025%01:34 (00:31)
4 Fortified Feb 3, 2016 $14.99N/A (N/A)500,000 .. 1,000,0000%00:00 (00:00)
5 Samudai Feb 9, 2015 $0.49N/A (N/A)50,000 .. 100,0000%00:00 (00:00)
6 ManaCollect Apr 17, 2015 $6.99N/A (N/A)0 .. 20,0000%00:00 (00:00)
7 CRYPTARK Jun 20, 2017 $14.99N/A (N/A/80%)100,000 .. 200,0000%00:00 (00:00)
8 Bloodsports.TV Mar 30, 2015 $9.99N/A (N/A/69%)100,000 .. 200,0000%00:00 (00:00)
9 Gratuitous Space Battles 2 Apr 16, 2015 $9.99N/A (N/A)20,000 .. 50,0000%00:00 (00:00)
10 Velocity 2X Aug 19, 2015 $19.99N/A (N/A)50,000 .. 100,0000%00:00 (00:00)
11 David. Feb 16, 2015 $1.99N/A (N/A)100,000 .. 200,0000%00:00 (00:00)
12 Royal Bounty HD Aug 10, 2015 $2.99N/A (N/A)0 .. 20,0000%00:00 (00:00)
13 Rise & Shine Jan 13, 2017 $14.99N/A (N/A)50,000 .. 100,0000%00:00 (00:00)
14 Strategy & Tactics: Wargame Collection Apr 22, 2016 $9.99N/A (N/A)50,000 .. 100,0000%00:00 (00:00)
15 TRON 2.0 Oct 10, 2014 $9.99N/A (N/A/84%)200,000 .. 500,0000%00:00 (00:00)
16 Headlander Jul 25, 2016 $19.99N/A (N/A/74%)50,000 .. 100,0000%00:00 (00:00)
17 Frozen Synapse Prime Nov 14, 2014 $24.99N/A (N/A/83%)100,000 .. 200,0000%00:00 (00:00)
18 ShootMania Storm Apr 10, 2013 $19.99N/A (N/A/76%)50,000 .. 100,0000%00:00 (00:00)
19 In Verbis Virtus Apr 3, 2015 $19.99N/A (N/A)50,000 .. 100,0000%00:00 (00:00)
20 Anodyne Mar 22, 2013 $9.99N/A (N/A/75%)100,000 .. 200,0000%00:00 (00:00)
21 Divinity: Dragon Commander Aug 6, 2013 $39.99N/A (N/A)200,000 .. 500,0000%00:00 (00:00)
22 Horizon Feb 6, 2014 $29.99N/A (N/A/58%)50,000 .. 100,0000%00:00 (00:00)
23 Sid Meier’s Ace Patrol Aug 27, 2013 $4.99N/A (N/A)200,000 .. 500,0000%00:00 (00:00)
24 Anomaly 2 May 15, 2013 $14.99N/A (N/A/77%)200,000 .. 500,0000%00:00 (00:00)
25 ENSLAVED: Odyssey to the West Premium Edition Oct 24, 2013 $19.99N/A (N/A/70%)200,000 .. 500,0000%00:00 (00:00)
26 Bleed Jul 3, 2013 $4.99N/A (N/A)100,000 .. 200,0000%00:00 (00:00)
27 Disney Epic Mickey 2: The Power of Two Oct 6, 2014 $19.99N/A (N/A)20,000 .. 50,0000%00:00 (00:00)
28 Wanderlust Adventures Aug 10, 2015 $9.99N/A (N/A)50,000 .. 100,0000%00:00 (00:00)
29 Flashback Oct 1, 2013 $9.99N/A (N/A)20,000 .. 50,0000%00:00 (00:00)
30 Ittle Dew Jul 23, 2013 $9.99N/A (N/A/67%)100,000 .. 200,0000%00:00 (00:00)
31 Scourge: Outbreak Apr 2, 2014 $5.99N/A (N/A)100,000 .. 200,0000%00:00 (00:00)
32 CastleStorm Jul 29, 2013 $9.99N/A (N/A/73%)100,000 .. 200,0000%00:00 (00:00)
33 Skulls of the Shogun Jul 29, 2013 $9.99N/A (N/A/72%)100,000 .. 200,0000%00:00 (00:00)
34 Guncraft Aug 9, 2013 $14.99N/A (N/A/73%)20,000 .. 50,0000%00:00 (00:00)
35 rooMaze Mar 3, 2017 $0.49N/A (N/A)50,000 .. 100,0000%00:00 (00:00)
36 Defence to death May 11, 2017 $5.99N/A (N/A)20,000 .. 50,0007.14%06:45 (02:15)
37 Tank Destroyer Mar 9, 2017 $0.99N/A (N/A)50,000 .. 100,0000%00:00 (00:00)
38 Sudden Strike 2 Gold Aug 30, 2002 $5.99N/A (N/A)50,000 .. 100,0000%00:00 (00:00)
39 Child Of Ault Jan 24, 2017 $9.99N/A (N/A)0 .. 20,0000%00:00 (00:00)
40 Heaven Forest NIGHTS Mar 13, 2017 $0.99N/A (N/A)500,000 .. 1,000,0000%00:00 (00:00)
41 Fort Meow Jun 24, 2015 $7.99N/A (N/A)20,000 .. 50,0000%00:00 (00:00)
42 Solar Shifter EX Sep 11, 2015 $4.99N/A (N/A)0 .. 20,0000%00:00 (00:00)
43 Fair Strike Apr 23, 2015 $3.99N/A (N/A/56%)0 .. 20,0000%00:00 (00:00)
44 Star Trek: Judgment Rites May 8, 2015 $9.99N/A (N/A)20,000 .. 50,0000%00:00 (00:00)
45 King of Dragon Pass Jul 28, 2015 $11.99N/A (N/A)50,000 .. 100,0000%00:00 (00:00)
46 Redemption: Saints And Sinners Nov 18, 2016 $0.99N/A (N/A)20,000 .. 50,0000%00:00 (00:00)
47 Urban Empire Jan 20, 2017 $29.99N/A (N/A/62%)100,000 .. 200,0000%00:00 (00:00)
48 Apocalypse: Party's Over May 30, 2016 N/AN/A (N/A)0 .. 20,0000%00:00 (00:00)
49 Bombshell Jan 29, 2016 $34.99N/A (N/A/43%)50,000 .. 100,0000%00:00 (00:00)
50 Pongo May 11, 2015 $0.99N/A (N/A)50,000 .. 100,0000%00:00 (00:00)
51 Dungeon Warfare Nov 4, 2015 $9.99N/A (N/A)50,000 .. 100,0000%00:00 (00:00)
52 Riddled Corpses Jun 2, 2015 $7.99N/A (N/A)20,000 .. 50,0000%00:00 (00:00)
53 Interloper May 21, 2015 FreeN/A (N/A/77%)20,000 .. 50,0000%00:00 (00:00)
54 Planet of the Eyes Aug 24, 2015 $9.99N/A (N/A/66%)50,000 .. 100,0000%00:00 (00:00)
55 Assassin’s Creed Chronicles: India Jan 12, 2016 $9.99N/A (N/A)50,000 .. 100,0000%00:00 (00:00)
56 Cultures - 8th Wonder of the World Mar 26, 2015 $4.99N/A (N/A)100,000 .. 200,0000%00:00 (00:00)
57 PixelJunk Shooter Nov 11, 2013 $8.99N/A (N/A/73%)100,000 .. 200,0000%00:00 (00:00)
58 Livelock Aug 30, 2016 $9.99N/A (N/A/73%)20,000 .. 50,00016.67%01:15 (00:25)
59 Bedlam Oct 13, 2015 N/AN/A (N/A/54%)100,000 .. 200,0000%00:00 (00:00)
60 Chainsaw Warrior Oct 7, 2013 $4.99N/A (N/A)50,000 .. 100,0000%00:00 (00:00)
61 SPACECOM Sep 17, 2014 $9.99N/A (N/A/68%)50,000 .. 100,0000%00:00 (00:00)
62 Anomaly Warzone Earth Mobile Campaign Nov 6, 2013 $4.99N/A (N/A)100,000 .. 200,0000%00:00 (00:00)
63 Wyv and Keep: The Temple of the Lost Idol Aug 8, 2014 $14.99N/A (N/A)0 .. 20,0000%00:00 (00:00)
64 YAIBA: NINJA GAIDEN Z Mar 21, 2014 $29.99N/A (N/A/49%)20,000 .. 50,0000%00:00 (00:00)
65 Platformines Mar 28, 2014 $9.99N/A (N/A/67%)50,000 .. 100,0000%00:00 (00:00)
66 Dusty Revenge:Co-Op Edition Feb 17, 2014 $14.99N/A (N/A)50,000 .. 100,0000%00:00 (00:00)
67 Deadly 30 Jan 8, 2014 $4.99N/A (N/A)100,000 .. 200,0000%00:00 (00:00)
68 McDROID Sep 5, 2014 $24.99N/A (N/A)0 .. 20,0000%00:00 (00:00)
69 Meridian: New World Sep 26, 2014 $6.99N/A (N/A/43%)100,000 .. 200,0000%00:00 (00:00)
70 Hot Tin Roof: The Cat That Wore A Fedora Feb 20, 2015 $7.49N/A (N/A/66%)50,000 .. 100,0000%00:00 (00:00)
71 Lords of the Black Sun Sep 12, 2014 $5.39N/A (N/A)20,000 .. 50,0000%00:00 (00:00)
72 Silent Storm Gold Edition Oct 2, 2013 $2.49N/A (N/A/83%)200,000 .. 500,0000%00:00 (00:00)
73 Zafehouse: Diaries Sep 6, 2013 $1.99N/A (N/A)50,000 .. 100,0000%00:00 (00:00)
74 Rocket Knight May 11, 2010 $14.99N/A (N/A/63%)0 .. 20,0000%00:00 (00:00)
75 Civilization IV: Warlords Apr 6, 2007 $4.99N/A (N/A/84%)1,000,000 .. 2,000,0000%00:00 (00:00)
76 Tom Clancy's EndWar Feb 25, 2009 $9.99N/A (N/A/68%)100,000 .. 200,0000%00:00 (00:00)
77 Ghost Master Dec 21, 2006 $4.99N/A (N/A/81%)100,000 .. 200,0000%00:00 (00:00)
78 King Arthur - The Role-playing Wargame Nov 24, 2009 $9.99N/A (N/A)200,000 .. 500,0000%00:00 (00:00)
79 Making History: The Calm & the Storm Mar 13, 2007 $4.99N/A (N/A/70%)50,000 .. 100,0000%00:00 (00:00)
80 Supreme Ruler 2020 Gold Jul 9, 2009 $9.99N/A (N/A/65%)50,000 .. 100,0000%00:00 (00:00)
81 Lost Planet: Extreme Condition Jun 26, 2007 $14.99N/A (N/A/66%)200,000 .. 500,0000%00:00 (00:00)
82 Majesty Gold HD Sep 4, 2009 $2.49N/A (N/A)100,000 .. 200,0000%00:00 (00:00)
83 Warhammer 40,000: Dawn of War – Winter Assault Aug 7, 2007 $12.99N/A (N/A)500,000 .. 1,000,0000%00:00 (00:00)
84 Caster Mar 19, 2009 $1.99N/A (N/A)200,000 .. 500,0000%00:00 (00:00)
85 Supreme Commander Sep 28, 2011 $12.99N/A (N/A/86%)1,000,000 .. 2,000,0000%00:00 (00:00)
86 Chaser Jul 16, 2010 $1.24N/A (N/A/66%)100,000 .. 200,0000%00:00 (00:00)
87 Heroes of Might & Magic V: Hammers of Fate Nov 14, 2006 $9.99N/A (N/A/66%)50,000 .. 100,0000%00:00 (00:00)
88 BloodRayne Sep 14, 2006 $9.99N/A (N/A/65%)50,000 .. 100,0000%00:00 (00:00)
89 Nuclear Dawn Sep 26, 2011 $9.99N/A (N/A/71%)200,000 .. 500,0000%00:00 (00:00)
90 CivCity: Rome Apr 6, 2007 $9.99N/A (N/A/67%)50,000 .. 100,0000%00:00 (00:00)
91 Spooky Cats Jun 4, 2015 $2.99N/A (N/A)20,000 .. 50,0000%00:00 (00:00)
92 Valley Aug 24, 2016 $14.99N/A (N/A)200,000 .. 500,0000%00:00 (00:00)
93 Weapon of Choice Sep 23, 2015 $4.99N/A (N/A)0 .. 20,0000%00:00 (00:00)
94 Incandescent Jun 30, 2015 $0.99N/A (N/A)20,000 .. 50,0000%00:00 (00:00)
95 Explosionade Sep 23, 2015 $3.99N/A (N/A)0 .. 20,0000%00:00 (00:00)
96 Zombie Killtime Aug 4, 2015 $1.99N/A (N/A)0 .. 20,0000%00:00 (00:00)
97 Defend The Highlands Nov 6, 2015 $9.99N/A (N/A)200,000 .. 500,0000%00:00 (00:00)
98 Kidnapped Aug 4, 2015 $2.99N/A (N/A)100,000 .. 200,0000%00:00 (00:00)
99 NOBUNAGA'S AMBITION: Sphere of Influence - Ascension / 信長の野望・創造 戦国立志伝 Mar 23, 2016 $59.99N/A (N/A)200,000 .. 500,0000%00:00 (00:00)
100 E.T. Armies Mar 3, 2016 $14.99N/A (N/A/54%)50,000 .. 100,0000%00:00 (00:00)
101 Island Defense Jul 23, 2015 $1.99N/A (N/A)50,000 .. 100,0000%00:00 (00:00)
102 Cross of the Dutchman Sep 10, 2015 $8.99N/A (N/A/59%)20,000 .. 50,0000%00:00 (00:00)
103 Tiki Man Jun 5, 2015 $2.99N/A (N/A)50,000 .. 100,0000%00:00 (00:00)
104 Vampire of the Sands Jul 17, 2015 $4.99N/A (N/A)0 .. 20,0000%00:00 (00:00)
105 Biodrone Battle Jul 16, 2015 $1.99N/A (N/A)50,000 .. 100,0000%00:00 (00:00)
106 Gnumz: Masters of Defense Dec 21, 2015 $4.99N/A (N/A)200,000 .. 500,0000%00:00 (00:00)
107 Tcheco in the Castle of Lucio Jun 22, 2015 $0.49N/A (N/A)50,000 .. 100,0000%00:00 (00:00)
108 Battlepillars Gold Edition Apr 28, 2014 $4.99N/A (N/A)20,000 .. 50,0000%00:00 (00:00)
109 Shadow Blade: Reload Aug 10, 2015 $9.99N/A (N/A/70%)20,000 .. 50,0000%00:00 (00:00)
110 Battleplan: American Civil War Jul 4, 2014 $9.99N/A (N/A/66%)100,000 .. 200,0000%00:00 (00:00)
111 The Last Federation Apr 18, 2014 $19.99N/A (N/A/72%)50,000 .. 100,0000%00:00 (00:00)
112 Enemy Mind Jun 6, 2014 $9.99N/A (N/A)100,000 .. 200,0000%00:00 (00:00)
113 Z Steel Soldiers Aug 1, 2014 $12.99N/A (N/A)50,000 .. 100,0000%00:00 (00:00)
114 8-Bit Commando Jun 2, 2014 $3.99N/A (N/A)100,000 .. 200,0000%00:00 (00:00)
115 Z Jul 4, 2014 $6.99N/A (N/A)100,000 .. 200,0000%00:00 (00:00)
116 Strike Suit Zero: Director's Cut Apr 8, 2014 $19.99N/A (N/A)50,000 .. 100,0000%00:00 (00:00)
117 Battle Group 2 Jun 13, 2014 $7.99N/A (N/A)50,000 .. 100,0000%00:00 (00:00)
118 Perimeter: Emperor's Testament May 22, 2014 $3.99N/A (N/A/72%)20,000 .. 50,0000%00:00 (00:00)
119 RIVE: Wreck, Hack, Die, Retry! Sep 13, 2016 $14.99N/A (N/A)100,000 .. 200,0000%00:00 (00:00)
120 Freight Tycoon Inc. Apr 3, 2014 $4.99N/A (N/A)20,000 .. 50,0000%00:00 (00:00)
121 Interplanetary May 12, 2015 N/AN/A (N/A)100,000 .. 200,0000%00:00 (00:00)
122 Gun Metal Jan 16, 2014 $2.99N/A (N/A)200,000 .. 500,0000%00:00 (00:00)
123 Devil's Dare 悪魔の挑戦 Oct 21, 2014 $12.99N/A (N/A)20,000 .. 50,0000%00:00 (00:00)
124 Meltdown Jun 5, 2014 $6.99N/A (N/A)100,000 .. 200,0000%00:00 (00:00)
125 Rise: Battle Lines Nov 17, 2015 N/AN/A (N/A)0 .. 20,0000%00:00 (00:00)
126 Prospekt Feb 18, 2016 $5.99N/A (N/A/43%)50,000 .. 100,0000%00:00 (00:00)
127 Sol 0: Mars Colonization Jan 15, 2016 $3.99N/A (N/A)50,000 .. 100,0000%00:00 (00:00)
128 Reverse Crawl Sep 24, 2015 $5.99N/A (N/A)50,000 .. 100,0000%00:00 (00:00)
129 Anarcute Jul 12, 2016 $14.99N/A (N/A/79%)20,000 .. 50,0000%00:00 (00:00)
130 The Political Machine 2016 Feb 4, 2016 N/AN/A (N/A)50,000 .. 100,0000%00:00 (00:00)
131 TRON RUN/r Feb 16, 2016 $19.99N/A (N/A)20,000 .. 50,0000%00:00 (00:00)
132 Knight Adventure Oct 15, 2015 $0.99N/A (N/A)50,000 .. 100,0000%00:00 (00:00)
133 Toy Odyssey: The Lost and Found Sep 20, 2016 $14.99N/A (N/A/66%)20,000 .. 50,0000%00:00 (00:00)
134 Run Rabbit Run Mar 31, 2016 $3.99N/A (N/A)0 .. 20,0000%00:00 (00:00)
135 NOBUNAGA'S AMBITION: Sphere of Influence Sep 1, 2015 $59.99N/A (N/A/70%)20,000 .. 50,0000%00:00 (00:00)
136 Galaxy Admirals Jan 17, 2017 $1.99N/A (N/A)100,000 .. 200,0000%00:00 (00:00)
137 WARSHIFT Oct 12, 2016 $9.99N/A (N/A)20,000 .. 50,0000%00:00 (00:00)
138 Hybrid Wars Sep 29, 2016 N/AN/A (N/A/54%)0 .. 20,0000%00:00 (00:00)
139 Little Big Adventure 2 Oct 20, 2015 $3.99N/A (N/A)50,000 .. 100,0000%00:00 (00:00)
140 Vendetta - Curse of Raven's Cry Nov 20, 2015 $29.99N/A (N/A)200,000 .. 500,0000%00:00 (00:00)
141 Ace of Protectors Jun 27, 2016 $1.99N/A (N/A)0 .. 20,0000%00:00 (00:00)
142 Knightmare Tower Jun 16, 2014 $3.99N/A (N/A)0 .. 20,0000%00:00 (00:00)
143 The Fall May 30, 2014 $9.99N/A (N/A/76%)200,000 .. 500,0000%00:00 (00:00)
144 Orbital Gear Aug 7, 2014 $9.99N/A (N/A/59%)200,000 .. 500,0000%00:00 (00:00)
145 Royal Defense Nov 10, 2014 $4.99N/A (N/A)100,000 .. 200,0000%00:00 (00:00)
146 Rooks Keep Dec 5, 2014 $7.99N/A (N/A)0 .. 20,0000%00:00 (00:00)
147 Smugglers 5 Apr 11, 2014 $9.99N/A (N/A)20,000 .. 50,0000%00:00 (00:00)
148 Psichodelya Aug 8, 2014 N/AN/A (N/A)50,000 .. 100,0000%00:00 (00:00)
149 NOBUNAGA'S AMBITION: Souzou (Traditional Chinese version) Aug 2014 $24.99N/A (N/A)20,000 .. 50,0000%00:00 (00:00)
150 Disney Pirates of the Caribbean: At Worlds End Oct 6, 2014 $4.99N/A (N/A)20,000 .. 50,0000%00:00 (00:00)
151 Merchants of Kaidan Nov 10, 2014 $14.99N/A (N/A)100,000 .. 200,0000%00:00 (00:00)
152 Momodora III Jul 1, 2014 $1.99N/A (N/A)50,000 .. 100,0000%00:00 (00:00)
153 Brigade E5: New Jagged Union Apr 30, 2014 $3.99N/A (N/A/41%)0 .. 20,0000%00:00 (00:00)
154 Blue Estate The Game Apr 8, 2015 $12.99N/A (N/A/59%)50,000 .. 100,0000%00:00 (00:00)
155 Viktor Jun 13, 2014 $0.79N/A (N/A)20,000 .. 50,0000%00:00 (00:00)
156 Perimeter Apr 3, 2014 $3.99N/A (N/A/77%)20,000 .. 50,0000%00:00 (00:00)
157 Zombies on a Plane Mar 25, 2016 $4.99N/A (N/A)20,000 .. 50,0000%00:00 (00:00)
158 7,62 High Calibre Apr 30, 2014 $4.99N/A (N/A)50,000 .. 100,0000%00:00 (00:00)
159 Making History II: The War of the World Jun 22, 2010 $7.49N/A (N/A/38%)50,000 .. 100,0000%00:00 (00:00)
160 Carrier Command: Gaea Mission Sep 28, 2012 $32.99N/A (N/A/60%)200,000 .. 500,0000%00:00 (00:00)
161 Greed Corp Dec 10, 2010 $9.99N/A (N/A/76%)200,000 .. 500,0000%00:00 (00:00)
162 Star Ruler Sep 20, 2010 $7.99N/A (N/A)100,000 .. 200,0000%00:00 (00:00)
163 Atom Zombie Smasher Mar 14, 2011 $9.99N/A (N/A/75%)200,000 .. 500,0000%00:00 (00:00)
164 Pride of Nations Jun 7, 2011 $19.99N/A (N/A/70%)20,000 .. 50,0000%00:00 (00:00)
165 Patrician IV Sep 17, 2010 $7.49N/A (N/A/66%)100,000 .. 200,0000%00:00 (00:00)
166 Sengoku Sep 15, 2011 $1.99N/A (N/A/70%)100,000 .. 200,0000%00:00 (00:00)
167 Dungeons Feb 10, 2011 $9.99N/A (N/A/65%)200,000 .. 500,0000%00:00 (00:00)
168 Fate of the World Feb 28, 2011 $9.99N/A (N/A/70%)50,000 .. 100,0000%00:00 (00:00)
169 A Game of Thrones - Genesis Sep 28, 2011 $9.99N/A (N/A)100,000 .. 200,0000%00:00 (00:00)
170 A.R.E.S.: Extinction Agenda Jan 19, 2011 $4.99N/A (N/A/68%)50,000 .. 100,0000%00:00 (00:00)
171 Monday Night Combat Jan 24, 2011 $4.99N/A (N/A/82%)200,000 .. 500,0000%00:00 (00:00)
172 Dead Rising 2: Off the Record Oct 11, 2011 $19.99N/A (N/A/66%)200,000 .. 500,0000%00:00 (00:00)
173 Swords and Soldiers HD Dec 2, 2010 $9.99N/A (N/A)200,000 .. 500,0000%00:00 (00:00)
174 Star Wolves 3: Civil War Mar 2, 2010 $4.99N/A (N/A)100,000 .. 200,00012.5%00:02 (00:00)
175 Men of War: Vietnam Sep 8, 2011 $7.99N/A (N/A/68%)200,000 .. 500,0000%00:00 (00:00)
176 Monster Monpiece Mar 14, 2017 $9.99N/A (N/A)20,000 .. 50,0000%00:00 (00:00)
177 Banzai Escape Feb 29, 2016 $5.99N/A (N/A)20,000 .. 50,0000%00:00 (00:00)
178 Goblin Defenders: Steel‘n’ Wood Nov 23, 2015 $2.99N/A (N/A)20,000 .. 50,0000%00:00 (00:00)
179 Revenge of Roger Rouge Apr 22, 2016 $1.94N/A (N/A)20,000 .. 50,0000%00:00 (00:00)
180 Gurgamoth Feb 16, 2016 $9.99N/A (N/A)20,000 .. 50,0000%00:00 (00:00)
181 Auralux: Constellations Jun 1, 2016 $9.99N/A (N/A)0 .. 20,0000%00:00 (00:00)
182 Vector Strain Dec 9, 2015 $4.99N/A (N/A)20,000 .. 50,0000%00:00 (00:00)
183 GIBZ Apr 7, 2017 $7.99N/A (N/A)20,000 .. 50,0000%00:00 (00:00)
184 Neon Chrome Apr 28, 2016 $14.99N/A (N/A/74%)200,000 .. 500,0000%00:00 (00:00)
185 REDCON Apr 22, 2016 $5.99N/A (N/A)50,000 .. 100,0000%00:00 (00:00)
186 Phoning Home Feb 7, 2017 $9.99N/A (N/A/61%)0 .. 20,0000%00:00 (00:00)
187 Ace of Seafood Apr 8, 2016 $3.59N/A (N/A)50,000 .. 100,0000%00:00 (00:00)
188 Warlords Battlecry III Jan 22, 2016 $9.99N/A (N/A/73%)50,000 .. 100,0000%00:00 (00:00)
189 Link Apr 22, 2016 $4.99N/A (N/A)0 .. 20,0000%00:00 (00:00)
190 Star Realms Mar 8, 2016 FreeN/A (N/A)100,000 .. 200,0000%00:00 (00:00)
191 Corgi Warlock Dec 3, 2015 $1.99N/A (N/A)20,000 .. 50,0000%00:00 (00:00)
192 Legends of Callasia Jun 10, 2016 FreeN/A (N/A)50,000 .. 100,0000%00:00 (00:00)
193 Gold Rush! Anniversary Nov 7, 2014 $5.99N/A (N/A)50,000 .. 100,0000%00:00 (00:00)
194 The Way May 20, 2016 $14.99N/A (N/A/67%)100,000 .. 200,0000%00:00 (00:00)
195 There Came an Echo Feb 24, 2015 $14.99N/A (N/A/58%)20,000 .. 50,0000%00:00 (00:00)
196 Super Trench Attack! Jul 24, 2014 $4.99N/A (N/A)50,000 .. 100,0000%00:00 (00:00)
197 Deadlings: Rotten Edition Nov 11, 2014 $3.99N/A (N/A)50,000 .. 100,0000%00:00 (00:00)
198 Spirits of Xanadu Mar 26, 2015 $4.99N/A (N/A)0 .. 20,0000%00:00 (00:00)
199 Toren May 11, 2015 $9.99N/A (N/A/57%)100,000 .. 200,0000%00:00 (00:00)
200 Khet 2.0 Oct 1, 2014 $9.99N/A (N/A)50,000 .. 100,0000%00:00 (00:00)
201 Wickland Feb 6, 2015 $0.99N/A (N/A)50,000 .. 100,0000%00:00 (00:00)
202 Foresight Nov 28, 2014 $4.99N/A (N/A)0 .. 20,0000%00:00 (00:00)
203 Kalimba Apr 22, 2015 $9.99N/A (N/A/81%)20,000 .. 50,0000%00:00 (00:00)
204 Stonerid Aug 15, 2014 $0.49N/A (N/A)20,000 .. 50,0000%00:00 (00:00)
205 Run or Die Dec 11, 2014 $4.99N/A (N/A)20,000 .. 50,0000%00:00 (00:00)
206 Hunters Of The Dead Sep 4, 2014 $4.99N/A (N/A)0 .. 20,0000%00:00 (00:00)
207 Nux Dec 26, 2006 $6.99N/A (N/A)100,000 .. 200,0000%00:00 (00:00)
208 Platypus II Aug 15, 2014 $3.99N/A (N/A)200,000 .. 500,0000%00:00 (00:00)
209 Gold Rush! Classic Jul 25, 2014 $2.99N/A (N/A)200,000 .. 500,0000%00:00 (00:00)
210 Dungeons - The Dark Lord Sep 27, 2011 $19.99N/A (N/A/72%)100,000 .. 200,0000%00:00 (00:00)
211 Zeno Clash 2 Apr 30, 2013 $14.99N/A (N/A)200,000 .. 500,0000%00:00 (00:00)
212 Impire Feb 14, 2013 $19.99N/A (N/A/45%)100,000 .. 200,0000%00:00 (00:00)
213 Jagged Alliance 2 - Wildfire Nov 16, 2012 $6.99N/A (N/A)500,000 .. 1,000,0000%00:00 (00:00)
214 Men of War: Condemned Heroes Apr 12, 2012 $7.99N/A (N/A/57%)100,000 .. 200,0000%00:00 (00:00)
215 Gemini Wars Nov 2, 2012 $14.99N/A (N/A/53%)20,000 .. 50,0000%00:00 (00:00)
216 Jagged Alliance: Crossfire Aug 24, 2012 $3.74N/A (N/A/63%)100,000 .. 200,0000%00:00 (00:00)
217 Eufloria HD Oct 14, 2014 $14.99N/A (N/A)100,000 .. 200,0000%00:00 (00:00)
218 Stellar Impact Apr 12, 2012 $9.99N/A (N/A/74%)50,000 .. 100,0000%00:00 (00:00)
219 Arma Tactics Oct 1, 2013 $8.99N/A (N/A/47%)200,000 .. 500,0000%00:00 (00:00)
220 Tryst Sep 14, 2012 $14.99N/A (N/A/50%)0 .. 20,0000%00:00 (00:00)
221 Sang-Froid - Tales of Werewolves Apr 5, 2013 FreeN/A (N/A/79%)200,000 .. 500,0000%00:00 (00:00)
222 Check vs Mate Aug 16, 2012 $19.99N/A (N/A/69%)20,000 .. 50,0000%00:00 (00:00)
223 Demolition Inc. Sep 19, 2011 $5.99N/A (N/A)50,000 .. 100,0000%00:00 (00:00)
224 Conflict Desert Storm May 28, 2012 $6.99N/A (N/A/56%)50,000 .. 100,0000%00:00 (00:00)
225 A Game of Dwarves Oct 23, 2012 $9.99N/A (N/A/60%)100,000 .. 200,0000%00:00 (00:00)
226 Painkiller Hell & Damnation Oct 31, 2012 $3.99N/A (N/A/64%)200,000 .. 500,0000%00:00 (00:00)
227 Codex of Victory Mar 16, 2017 $2.99N/A (N/A)0 .. 20,0000%00:00 (00:00)
228 Sorcerer King: Rivals Sep 22, 2016 $19.99N/A (N/A)20,000 .. 50,0000%00:00 (00:00)
229 Purgatory Jun 22, 2016 $0.99N/A (N/A)50,000 .. 100,0000%00:00 (00:00)
230 Bulletstorm: Full Clip Edition Apr 7, 2017 $39.99N/A (N/A/76%)200,000 .. 500,0007.14%01:54 (00:38)
231 Slash or Die Jun 3, 2016 $5.99N/A (N/A)50,000 .. 100,0000%00:00 (00:00)
232 BitMaster Oct 12, 2016 $0.59N/A (N/A)20,000 .. 50,0000%00:00 (00:00)
233 Smithy Jun 3, 2016 $0.99N/A (N/A)0 .. 20,0000%00:00 (00:00)
234 Toadled Sep 22, 2016 $0.99N/A (N/A)50,000 .. 100,0000%00:00 (00:00)
235 Beasts Battle Jun 15, 2016 $1.99N/A (N/A)20,000 .. 50,0000%00:00 (00:00)
236 Double Dragon IV Jan 30, 2017 $6.99N/A (N/A/50%)50,000 .. 100,0000%00:00 (00:00)
237 Mr. Shifty Apr 13, 2017 $14.99N/A (N/A)100,000 .. 200,0000%00:00 (00:00)
238 Voodoo Vince: Remastered Apr 18, 2017 $14.99N/A (N/A/63%)20,000 .. 50,0000%00:00 (00:00)
239 Quarantine Feb 9, 2017 $9.99N/A (N/A)20,000 .. 50,0000%00:00 (00:00)
240 Mysterium: A Psychic Clue Game Jan 12, 2017 $3N/A (N/A)50,000 .. 100,0000%00:00 (00:00)
241 Ballistic Tanks Sep 20, 2016 $4.99N/A (N/A)0 .. 20,0000%00:00 (00:00)
242 Magic Quest May 6, 2016 $1.99N/A (N/A)20,000 .. 50,0000%00:00 (00:00)
243 Woodle Tree 2: Worlds Sep 16, 2016 $1.27N/A (N/A)20,000 .. 50,0000%00:00 (00:00)

Tags over time:

Access restricted.

This feature is only available to users with special access rights. Sorry.

If you want to proceed, you need to register or log in first and then back Steam Spy on Patreon. Look for Indie or Pro pledge.

Don't forget to use the same email as on Steam Spy!

Owners of this game also own:

Access restricted.

This feature is only available to users with special access rights. Sorry.

If you want to proceed, you need to register or log in first and then back Steam Spy on Patreon. Look for Indie or Pro pledge.

Don't forget to use the same email as on Steam Spy!

Playtime distribution:

Access restricted.

This feature is only available to users with special access rights. Sorry.

If you want to proceed, you need to register or log in first and then back Steam Spy on Patreon. Look for Indie or Pro pledge.

Don't forget to use the same email as on Steam Spy!

Playtime (2 weeks):

Access restricted.

This feature is only available to users with special access rights. Sorry.

If you want to proceed, you need to register or log in first and then back Steam Spy on Patreon. Look for Indie or Pro pledge.

Don't forget to use the same email as on Steam Spy!

User reviews:

Login required.

Please register or log in to see this information.